Location: Unspecified
(35.6961°N, 0.0000°E)
Time: 13:19:05
(UTC+00:00)

Altair - Pass Details

Date: 24 May 2019
Orbit: 1501 x 1683 km, 47.2° (Epoch: 19 June)

Event Time Altitude Azimuth Distance (km) Brightness Sun altitude
Rises 09:06:09 0° 302° (WNW) 4,931 9.8 49.9°
Reaches altitude 10° 09:09:23 10° 305° (NW) 3,931 9.4 50.6°
Maximum altitude 09:19:29 72° 30° (NNE) 1,706 8.9 52.6°
Drops below altitude 10° 09:29:12 10° 114° (ESE) 3,797 10.3 54.5°
Sets 09:32:15 0° 117° (ESE) 4,756 10.6 55.1°
